Regional Weather Roundup
Issued by NWS

Home | Current Version | Previous Version | Text Only | Print | Product List | Glossary On
Versions: 1 2 3 4 5 6 7 8 9 10 11 12 13 14 15 16 17 18 19 20 21 22 23 24 25 26 27 28 29 30 31 32 33 34 35 36 37 38 39 40 41 42 43 44 45 46 47 48 49 50
349
ASUS43 KMKX 121621
RWRWI

WISCONSIN REGIONAL WEATHER ROUNDUP
NATIONAL WEATHER SERVICE MILWAUKEE/SULLIVAN WI
1000 AM CST FRI FEB 12 2016

NOTE: "FAIR" INDICATES FEW OR NO CLOUDS BELOW 12,000 FEET WITH NO
SIGNIFICANT WEATHER AND/OR OBSTRUCTIONS TO VISIBILITY.

WIZ001-002-006>008-014>016-023>028-121700-
NORTHWEST WISCONSIN

CITY           SKY/WX    TMP DP  RH WIND       PRES   REMARKS
SUPERIOR ARPT  SUNNY      1 -12  55 NW20G25   30.40R WCI -21
ASHLAND        PTSUNNY    2  -6  69 NW18      30.30R HAZE    WCI -19
HAYWARD        MIX PCPN   2  -9  60 NW12G22   30.27R WCI -15
SIREN          SUNNY      4 -10  51 NW17G23   30.35R WCI -15
CUMBERLAND     CLOUDY     5  -4  66 NW17G25   30.27R HAZE    WCI -14
RICE LAKE      MOSUNNY    6  -6  57 NW14G21   30.29R WCI -11
CHETEK         CLOUDY     6  -4  65 MISG      30.27R HAZE
LADYSMITH      PTSUNNY    6  -5  59 NW17G24   30.23R WCI -13
EAU CLAIRE     SUNNY      9  -4  55 NW17G25   30.27R WCI  -9
MENOMONIE      PTSUNNY   12   0  59 NW16G22   30.29R WCI  -5
NEW RICHMOND   SUNNY      7  -6  56 NW24      30.32R WCI -14
OSCEOLA        MOSUNNY    7  -6  56 NW20G25   30.39R WCI -13
$$

WIZ003>005-009-010-017-018-121700-
NORTH CENTRAL WISCONSIN

CITY           SKY/WX    TMP DP  RH WIND       PRES   REMARKS
MANITOWISH WTR CLOUDY     2  -4  75 NW18G26   30.10R HAZE    WCI -18
ARBOR VITAE    SUNNY      5  -6  59 NW21G31   30.09R HAZE    WCI -16
WOODRUFF       SUNNY      5  -6  59 NW21G31   30.09R HAZE    WCI -16
RHINELANDER    CLOUDY     5  -7  57 NW18G31   30.08R WCI -15
EAGLE RIVER    PTSUNNY    6  -4  62 NW16G24   30.05R HAZE    WCI -13
LAND O LAKES   CLOUDY     6  -2  68 NW15G21   30.05R HAZE    WCI -11
PHILLIPS       CLOUDY     2  -7  64 NW10G24   30.15R WCI -13
TOMAHAWK       CLOUDY     5  -5  62 NW18G24   30.12R WCI -15
MEDFORD        SUNNY      5  -6  61 NW18G26   30.13R HAZE    WCI -15
MERRILL        MOSUNNY    7  -5  57 N15G24    30.13R WCI -11
$$

WIZ029-030-035-036-043>047-121700-
CENTRAL WISCONSIN

CITY           SKY/WX    TMP DP  RH WIND       PRES   REMARKS
WAUSAU         SUNNY      9  -4  55 NW15G25   30.12R WCI  -8
MOSINEE        MOSUNNY    7  -2  66 NW21G29   30.14R WCI -13
MARSHFIELD     SUNNY      8  -4  58 NW22      30.15R WCI -12
STEVENS POINT  SUNNY      9  -5  54 NW14G24   30.14S WCI  -8
WAUPACA        SUNNY     16  -1  45 NW15G23   30.14S WCI   2
WAUTOMA        MOSUNNY   14  -1  51 NW15G26   30.16S WCI  -1
WISC RAPIDS    SUNNY     11  -5  48 N18G26    30.18R WCI  -7
CAMP DOUGLAS   MOSUNNY   14   1  57 NW21G26   30.20R WCI  -4
$$

WIZ011>013-019>022-031-037>040-048>050-121700-
NORTHEAST WISCONSIN

CITY           SKY/WX    TMP DP  RH WIND       PRES   REMARKS
ANTIGO         MOSUNNY    6  -4  64 NW17G25   30.06R WCI -13
SHAWANO        PTSUNNY   15  -1  49 NW20G26   30.11S WCI  -3
OCONTO         SUNNY     14  -1  50 NW10G18   30.08S WCI   2
STURGEON BAY   MOSUNNY   14   0  52 W15G21    30.08R WCI  -1
GREEN BAY      SUNNY     13   0  56 NW20      30.10S WCI  -5
MANITOWOC      SUNNY     17   3  54 NW18G26   30.10R WCI   1
APPLETON       MOSUNNY   12  -2  52 W17G24    30.09S WCI  -5
CLINTONVILLE   SUNNY     14   0  52 NW16G24   30.11S WCI  -2
OSHKOSH        MOSUNNY   14   1  56 NW18G26   30.12R WCI  -3
$$

WIZ032>034-041-042-053>061-121700-
SOUTHWEST WISCONSIN

CITY           SKY/WX    TMP DP  RH WIND       PRES   REMARKS
LA CROSSE      PTSUNNY   14   3  61 NW18      30.28R WCI  -3
SPARTA         SUNNY     14   1  54 NW17G28   30.25R WCI  -2
VIROQUA        CLOUDY    13   4  68 NW15G21   30.20S WCI  -3
BOSCOBEL       FLURRIES  17   7  64 W12       30.26R WCI   4
PRAIRIE DU CHI MOSUNNY   16   3  58 NW18G24   30.29R WCI  -1
PLATTEVILLE    CLOUDY    15  10  78 NW16      30.22R WCI   0
$$

WIZ056-057-062-063-064-067-068-121700-
SOUTH CENTRAL WISCONSIN

CITY           SKY/WX    TMP DP  RH WIND       PRES   REMARKS
REEDSBURG      CLOUDY    14   5  66 NW13G21   30.19S WCI   0
BARABOO/DELLS  PTSUNNY   14   2  59 NW13G25   30.18R WCI   0
LONE ROCK      CLOUDY    17   6  62 NW13      30.23R WCI   4
MINERAL POINT  FLURRIES  18   9  68 NW16G23   30.19R WCI   3
MADISON        FLURRIES  15   5  64 NW15G23   30.17R WCI   0
MIDDLETON      CLOUDY    17   8  66 NW14      30.18S WCI   3
WATERTOWN      CLOUDY    16   6  65 NW17G23   30.14S WCI   0
MONROE         MOSUNNY   18   9  68 NW23G29   30.16S WCI   0
JANESVILLE     PTSUNNY   19   9  63 NW18G25   30.17R WCI   4
$$

WIZ051-052-058>065-066-070>072-121700-
SOUTHEAST WISCONSIN

CITY           SKY/WX    TMP DP  RH WIND       PRES   REMARKS
MILWAUKEE      PTSUNNY   17   4  56 NW24G30   30.13S WCI  -1
WAUKESHA       CLOUDY    12   3  67 NW22G30   30.13S HAZE    WCI  -7
MILWAUKEE/TIMM PTSUNNY   16   3  57 NW20      30.13S WCI  -1
RACINE         PTSUNNY   18   3  52 NW20G25   30.14S WCI   2
BURLINGTON     PTSUNNY   15   4  61 NW18G29   30.15R WCI  -1
KENOSHA        CLOUDY    18   6  59 NW18G26   30.14R WCI   2
FOND DU LAC    MOSUNNY   15   2  56 NW20G31   30.12S WCI  -2
SHEBOYGAN      CLOUDY    15   2  56 NW20G28   30.10S WCI  -2
WEST BEND      CLOUDY    16   3  57 NW17G29   30.11S WCI   0
JUNEAU         PTSUNNY   15   4  62 NW17      30.14S WCI  -1
$$

LSZ147-162-121700-
LAKE SUPERIOR

STATION/POSITION TIME  TEMP    WIND        PRES    WAVE
                       AIR SEA DIR/SP/G            HT/PER
                 (UTC) (F)     (DEG/KT/KT) (MB)    (FT/S)
DEVILS ISLAND    1600    1     330/ 23/ 26 1028.3R
PORT WING        1600    2     320/ 16/ 24 1027.8R
SAXON HARBOR     1601    4                 1025.1R
$$

LMZ867-665-643>646-121700-
LAKE MICHIGAN

STATION/POSITION TIME  TEMP    WIND        PRES    WAVE
                       AIR SEA DIR/SP/G            HT/PER
                 (UTC) (F)     (DEG/KT/KT) (MB)    (FT/S)
CHAMBERS ISLAND  1500   15     250/  7/ 16 1017.6S
ALGOMA LAKESHORE 1511          310/ 10/ 19   N/A
KEWAUNEE LAKESHO 1500   14     290/ 12/ 19 1017.7S
SHEBOYGAN LAKESH 1600   15     310/ 18/ 20 1021.0S
PORT WASHINGTON  1500   17     300/  9/ 20 1021.0S
MILWAUKEE LAKESH 1610   17     310/ 16/ 22   N/A
KENOSHA   LAKESH 1600   18     320/ 19/ 22 1020.0F
$$

TC  - TEMPERATURE IN CELSIUS
VSB - VISIBILITY IN STATUTE MILES
WCI - WIND CHILL INDEX
HX  - HEAT INDEX





USA.gov is the U.S. government's official web portal to all federal, state and local government web resources and services.